Location: Gleizolles
(44.4833°N, 6.7667°E)
Time: 22:27:15
(UTC+00:00)

Tiros 1 despin weight - Pass Details

Date: 02 July 2024
Orbit: 576 x 620 km, 48.2° (Epoch: 19 July)

Event Time Altitude Azimuth Distance (km) Brightness Sun altitude
Rises 09:35:40 0° 263° (W) 2,867 ? 57.2°
Reaches altitude 10° 09:37:59 10° 267° (W) 1,970 ? 57.5°
Maximum altitude 09:42:28 61° 348° (NNW) 700 ? 58.2°
Drops below altitude 10° 09:47:01 10° 69° (ENE) 1,988 ? 58.9°
Sets 09:49:21 0° 73° (ENE) 2,896 ? 59.2°
